DW3201 Weather Reports


Display with metric or nautical units.
time (UTC)temp
F
wind
direction
speed
MPH
gust
MPH
rain 1hr
in
rain 24hr
in
rain mn
in
humidity
%
barometer
mb
20201024052212 34 0 0.0 0.0 0.00 0.63 0.00 72 1023.0
20201024051213 34 0 0.0 0.0 0.00 0.63 0.00 72 1023.0
20201024050210 34 0 0.0 0.0 0.00 0.63 0.00 72 1023.0
20201024045209 34 0 0.0 0.0 0.00 0.63 0.63 72 1023.0
20201024044208 35 0 0.0 0.0 0.00 0.63 0.63 72 1023.4
20201024043209 35 0 0.0 0.0 0.00 0.63 0.63 71 1023.0
20201024042209 35 0 0.0 0.0 0.00 0.63 0.63 72 1023.0
20201024041206 35 0 0.0 0.0 0.00 0.63 0.63 72 1023.0
20201024040205 35 0 0.0 0.0 0.00 0.63 0.63 72 1023.0
20201024035205 36 0 0.0 0.0 0.00 0.63 0.63 72 1023.4
20201024034205 36 0 0.0 0.0 0.00 0.63 0.63 72 1023.0
20201024033203 36 0 0.0 0.0 0.00 0.63 0.63 72 1023.0
20201024032202 36 0 0.0 0.0 0.00 0.63 0.63 72 1022.7
20201024031204 37 0 0.0 0.0 0.00 0.63 0.63 72 1022.0
20201024030201 37 0 0.0 0.0 0.00 0.63 0.63 73 1022.4
20201024025209 38 0 0.0 0.0 0.00 0.63 0.63 73 1022.4
20201024024204 38 0 0.0 0.0 0.00 0.63 0.63 73 1022.0
20201024023158 38 0 0.0 0.0 0.00 0.63 0.63 73 1022.0
20201024022201 38 0 0.0 0.0 0.00 0.63 0.63 72 1021.7
20201024021155 39 0 0.0 0.0 0.00 0.63 0.63 72 1021.7
20201024020154 39 337 0.0 0.0 0.00 0.63 0.63 72 1021.7
20201024015152 39 0 0.0 0.0 0.00 0.63 0.63 72 1021.7
20201024014154 39 0 0.0 0.0 0.04 0.63 0.63 72 1021.7
20201024013151 39 0 0.0 0.0 0.04 0.63 0.63 72 1021.3
20201024012149 39 0 0.0 0.0 0.04 0.63 0.63 71 1021.3
20201024011149 39 0 0.0 0.0 0.04 0.63 0.63 71 1021.3
20201024010155 39 0 0.0 0.0 0.04 0.63 0.63 71 1021.3
20201024003903 39 0 0.0 0.0 0.00 0.59 0.59 71 1021.3
20201024002904 39 0 0.0 0.0 0.00 0.59 0.59 71 1021.0
20201024001900 40 0 0.0 0.0 0.00 0.59 0.59 71 1021.0
20201024000859 40 0 0.0 0.0 0.00 0.59 0.59 71 1020.7
20201023235858 40 0 0.0 0.0 0.00 0.59 0.59 71 1020.3
20201023234857 40 0 0.0 0.0 0.00 0.59 0.59 71 1020.0
20201023233857 40 0 0.0 0.0 0.00 0.59 0.59 70 1019.6
20201023232857 40 0 0.0 3.0 0.00 0.59 0.59 70 1019.3
20201023231856 40 0 0.0 0.0 0.00 0.59 0.59 70 1019.0
20201023230855 40 0 0.0 0.0 0.00 0.59 0.59 70 1018.3
20201023225856 40 337 2.0 2.0 0.00 0.59 0.59 69 1018.3
20201023224852 41 337 0.0 0.0 0.00 0.59 0.59 69 1017.9
20201023223852 41 0 0.0 0.0 0.00 0.59 0.59 68 1017.6
20201023222849 41 337 0.0 0.0 0.00 0.59 0.59 68 1017.6
20201023221851 41 0 0.0 0.0 0.00 0.59 0.59 68 1017.6
20201023220850 41 337 0.0 0.0 0.00 0.59 0.59 68 1017.3
20201023215846 41 0 0.0 0.0 0.00 0.59 0.59 67 1017.3
20201023214846 41 0 0.0 0.0 0.00 0.59 0.59 67 1016.9
20201023213844 41 337 0.0 0.0 0.00 0.59 0.59 67 1016.9
20201023212844 41 0 0.0 0.0 0.00 0.59 0.59 67 1016.9
20201023211847 41 337 0.0 0.0 0.00 0.59 0.59 67 1016.6
20201023210842 41 337 0.0 0.0 0.00 0.59 0.59 67 1016.6
20201023205846 41 337 0.0 0.0 0.00 0.59 0.59 67 1016.6
20201023204840 41 337 0.0 0.0 0.00 0.59 0.59 67 1016.6
20201023203840 41 337 0.0 0.0 0.00 0.59 0.59 67 1016.6
20201023202840 41 337 0.0 0.0 0.00 0.59 0.59 67 1016.6
20201023201838 41 337 0.0 0.0 0.00 0.59 0.59 67 1015.9
20201023200837 41 337 0.0 0.0 0.00 0.59 0.59 67 1016.3
20201023195836 41 315 0.0 0.0 0.00 0.59 0.59 67 1015.9
20201023194835 41 337 0.0 0.0 0.00 0.59 0.59 67 1015.9
20201023193836 41 337 0.0 0.0 0.00 0.59 0.59 67 1015.9
20201023192833 41 337 0.0 0.0 0.00 0.59 0.59 67 1015.9
20201023191832 41 337 0.0 0.0 0.00 0.59 0.59 67 1015.6
20201023190831 41 0 0.0 0.0 0.00 0.59 0.59 67 1015.6
20201023185829 41 0 0.0 0.0 0.00 0.59 0.59 67 1015.2
20201023184829 40 337 0.0 0.0 0.00 0.59 0.59 67 1014.9
20201023183828 40 315 0.0 0.0 0.00 0.59 0.59 67 1014.9
20201023182828 40 315 0.0 0.0 0.00 0.59 0.59 67 1014.6
20201023181831 40 337 0.0 0.0 0.00 0.59 0.59 67 1014.2
20201023180824 40 337 0.0 0.0 0.00 0.59 0.59 67 1014.2
20201023175824 40 337 0.0 0.0 0.00 0.59 0.59 67 1013.9
20201023174823 40 337 0.0 0.0 0.00 0.59 0.59 67 1013.9
20201023173822 40 337 0.0 0.0 0.02 0.59 0.59 67 1013.5
20201023172825 40 337 0.0 0.0 0.02 0.59 0.59 67 1013.5
20201023171820 41 337 0.0 0.0 0.04 0.59 0.59 67 1013.9
20201023170819 41 0 0.0 0.0 0.08 0.59 0.59 67 1013.9
20201023165817 41 0 0.0 0.0 0.08 0.59 0.59 67 1013.9
20201023164818 41 0 0.0 0.0 0.10 0.59 0.59 67 1013.9
20201023163816 41 0 0.0 0.0 0.08 0.57 0.57 67 1013.9
20201023162814 41 0 0.0 0.0 0.08 0.57 0.57 67 1013.9
20201023161812 41 0 0.0 0.0 0.06 0.55 0.53 67 1013.5
20201023160811 41 0 0.0 0.0 0.02 0.51 0.51 67 1013.5
20201023155812 41 0 0.0 0.0 0.00 0.51 0.49 67 1013.5
20201023154810 41 0 0.0 0.0 0.02 0.51 0.49 67 1013.2
20201023153813 41 0 0.0 0.0 0.02 0.51 0.49 67 1012.9
20201023152808 41 0 0.0 0.0 0.02 0.51 0.49 67 1012.5
20201023151807 41 0 0.0 0.0 0.02 0.51 0.49 67 1012.2
20201023150805 41 0 0.0 0.0 0.02 0.51 0.49 67 1012.2
20201023145804 41 0 0.0 0.0 0.00 0.51 0.47 67 1012.2
20201023144804 41 0 0.0 0.0 0.02 0.51 0.47 67 1012.2
20201023143803 42 0 0.0 0.0 0.02 0.51 0.47 67 1011.9
20201023142804 42 0 0.0 0.0 0.02 0.51 0.47 67 1011.9
20201023141801 42 45 0.0 0.0 0.02 0.51 0.47 67 1011.9
20201023140803 42 67 0.0 0.0 0.02 0.51 0.47 67 1011.5
20201023135759 42 67 0.0 0.0 0.02 0.65 0.47 67 1009.5
20201023134758 42 0 0.0 0.0 0.00 0.63 0.45 67 1010.2
20201023133757 41 337 0.0 0.0 0.02 0.63 0.45 67 1010.5
20201023132756 41 337 0.0 0.0 0.02 0.63 0.45 67 1011.2
20201023131757 41 337 0.0 0.0 0.02 0.63 0.45 67 1011.5
20201023130759 41 337 0.0 0.0 0.02 0.63 0.45 67 1011.9
20201023125753 41 337 0.0 0.0 0.02 0.82 0.45 67 1011.9
20201023124753 41 337 0.0 0.0 0.02 0.82 0.45 67 1011.9
20201023123751 42 0 0.0 0.0 0.00 0.80 0.43 67 1010.2
20201023122751 42 337 0.0 0.0 0.00 0.80 0.43 67 1010.5
20201023121749 42 337 0.0 0.0 0.00 0.80 0.43 67 1010.5
20201023120748 42 337 0.0 0.0 0.00 0.80 0.43 66 1010.2
20201023115747 43 337 0.0 0.0 0.02 1.04 0.43 66 1010.2
20201023114746 43 337 0.0 0.0 0.02 1.04 0.43 66 1010.5
20201023113747 43 337 0.0 0.0 0.02 1.04 0.43 66 1010.8
20201023112744 44 337 0.0 0.0 0.04 1.04 0.43 66 1011.2
20201023111747 44 337 0.0 0.0 0.04 1.04 0.43 66 1010.2
20201023110742 45 337 0.0 0.0 0.06 1.04 0.43 66 1009.5
20201023105741 46 270 0.0 0.0 0.06 1.02 0.41 65 1010.5
20201023104741 47 315 0.0 0.0 0.06 1.02 0.41 66 1010.5
20201023103739 48 247 0.0 0.0 0.06 1.02 0.41 65 1009.8
20201023102739 48 157 0.0 0.0 0.06 1.00 0.39 65 1009.1
20201023101737 48 135 0.0 0.0 0.08 1.00 0.37 65 1009.1
20201023100740 48 135 0.0 0.0 0.10 0.98 0.37 65 1009.1
20201023095735 48 135 0.0 0.0 0.16 1.14 0.35 65 1009.1
20201023094734 48 135 0.0 0.0 0.16 1.14 0.35 65 1008.8
20201023093733 48 135 0.0 0.0 0.18 1.14 0.35 65 1009.1
20201023092732 48 135 0.0 0.0 0.22 1.12 0.30 65 1008.8
20201023091731 48 135 0.0 0.0 0.22 1.10 0.28 65 1008.8
20201023090722 48 135 0.0 0.0 0.22 1.06 0.20 65 1009.1
20201023085721 48 67 0.0 0.0 0.14 1.06 0.18 65 1009.1
20201023084721 49 90 0.0 0.0 0.14 1.06 0.18 65 1009.1
20201023083723 49 337 0.0 0.0 0.14 1.02 0.12 65 1008.8
20201023082719 49 22 0.0 0.0 0.10 0.98 0.10 65 1008.8
20201023081720 49 0 0.0 0.0 0.08 0.96 0.08 64 1009.1
20201023080720 49 0 0.0 0.0 0.04 0.92 0.04 64 1009.1
20201023075717 49 0 0.0 0.0 0.04 1.12 0.04 64 1009.1
20201023074716 49 112 0.0 0.0 0.04 1.12 0.02 64 1008.5
20201023073714 49 135 0.0 0.0 0.00 1.08 0.00 64 1008.8
20201023072713 50 0 0.0 0.0 0.00 1.08 0.00 64 1009.5
20201023071711 50 0 0.0 0.0 0.00 1.08 0.00 65 1009.5
20201023070710 51 0 0.0 0.0 0.00 1.08 0.00 64 1009.5
20201023065710 51 45 0.0 0.0 0.00 1.14 0.00 64 1008.5
20201023064708 51 45 0.0 0.0 0.00 1.14 0.00 64 1008.5
20201023063710 51 45 0.0 0.0 0.00 1.14 0.00 64 1008.5
20201023062710 51 202 0.0 0.0 0.00 1.14 0.00 64 1008.1
20201023061706 51 202 0.0 0.0 0.00 1.14 0.00 64 1008.1
20201023055611 51 202 0.0 0.0 0.00 1.35 0.00 64 1008.1
20201023054615 51 202 0.0 0.0 0.00 1.35 0.00 64 1008.1
20201023053613 51 202 0.0 0.0 0.00 1.35 0.00 64 1008.1